Date_and_time,latitude,longitude,wind_speed,RelWindDirFrom,WindDirFrom,air_pressure,air_temperature,relative_humidity,Temp,platform_speed_wrt_ground,air_pressure_at_mean_sea_level,platform_orientation
2019-06-09 23:40,53.748105,-98.0778383333333,7.4,10.1,325,988.88,10.1,73,8.44,9.6,1015.82,284.0
2019-06-09 23:50,53.7494566666667,-98.0760133333333,7.8,9.1,258,988.80,10.7,70,9.50,0.6,1015.70,284.0
2019-06-10 00:00,53.7494683333333,-98.0760616666667,7.5,9.1,233,988.85,10.4,74,9.92,0.0,1015.75,334.2
2019-06-10 00:10,53.7495033333333,-98.076065,6.3,7.7,235,988.99,9.9,76,10.03,0.0,1015.91,334.2
2019-06-10 00:20,53.7495133333333,-98.07606,6.6,8.5,232,989.00,10.2,70,10.07,0.0,1015.91,334.2
2019-06-10 00:30,53.7494916666667,-98.0760883333333,9.0,9.9,232,988.93,10.2,69,10.10,0.0,1015.85,334.2
2019-06-10 00:40,53.749515,-98.0760683333333,8.8,10.2,226,988.91,10.3,67,10.14,0.0,1015.80,334.2
2019-06-10 00:50,53.749515,-98.0760166666667,8.8,10.5,228,988.88,10.2,68,10.17,0.0,1015.78,334.2
2019-06-10 01:00,53.749415,-98.0759333333333,13.4,18.8,254,988.75,10.5,66,10.18,0.0,1015.65,350.3
2019-06-10 01:10,53.7495583333333,-98.0758716666667,10.6,18.0,261,988.83,11.0,61,10.21,0.1,1015.69,350.3
2019-06-10 01:20,53.7495766666667,-98.0758883333333,8.0,10.2,264,988.90,11.1,63,10.22,0.0,1015.74,350.3
2019-06-10 01:30,53.7495983333333,-98.07591,7.2,9.1,254,988.89,11.1,67,10.21,0.0,1015.72,350.3
2019-06-10 01:40,53.7495983333333,-98.0759383333333,6.7,8.0,258,988.92,11.2,67,10.23,0.0,1015.73,350.3
2019-06-10 01:50,53.7496,-98.0759183333333,6.3,7.5,262,988.91,11.3,66,10.23,0.0,1015.73,350.3
2019-06-10 02:00,53.7495716666667,-98.0759016666667,5.6,8.0,270,988.97,11.1,69,10.25,0.0,1015.82,23.0
2019-06-10 02:10,53.7495766666667,-98.0758833333333,9.0,10.4,265,988.95,11.1,67,10.24,0.0,1015.78,23.0
2019-06-10 02:20,53.7495683333333,-98.0758866666667,10.6,13.9,265,988.99,11.2,64,10.25,0.0,1015.82,23.0
2019-06-10 02:30,53.74956,-98.0758883333333,8.5,10.5,268,989.12,10.9,69,10.23,0.0,1015.96,23.0
2019-06-10 02:40,53.74956,-98.0758816666667,7.0,8.0,278,989.23,10.7,71,10.25,0.0,1016.09,23.0
2019-06-10 02:50,53.749545,-98.0758616666667,7.9,9.0,273,989.24,10.5,72,10.26,0.0,1016.10,23.0
2019-06-10 03:00,53.7495233333333,-98.07585,9.3,11.9,271,989.26,10.4,72,10.25,0.0,1016.10,65.5
2019-06-10 03:10,53.7494266666667,-98.0757683333333,12.4,15.4,282,989.23,10.7,68,10.27,0.0,1016.05,65.5
2019-06-10 03:20,53.7494066666667,-98.0757666666667,14.2,16.2,292,989.20,11.2,66,10.25,0.0,1015.99,65.5
2019-06-10 03:30,53.7493783333333,-98.0757916666667,13.9,15.7,301,989.26,11.7,61,10.25,0.0,1016.03,65.5
2019-06-10 03:40,53.749405,-98.0758,13.4,15.5,300,989.35,11.7,60,10.25,0.0,1016.11,65.5
2019-06-10 03:50,53.74945,-98.0757983333333,12.1,14.4,296,989.43,11.6,61,10.26,0.0,1016.21,65.5
2019-06-10 04:00,53.749445,-98.0757933333333,11.0,13.5,286,989.47,11.2,66,10.29,0.0,1016.27,67.4
2019-06-10 04:10,53.7494733333333,-98.0757816666667,12.1,13.7,279,989.44,11.0,68,10.31,0.0,1016.24,67.4
2019-06-10 04:20,53.7494633333333,-98.07579,13.3,15.2,280,989.42,10.9,67,10.32,0.0,1016.25,67.4
2019-06-10 04:30,53.7494933333333,-98.0758233333333,12.1,13.4,282,989.46,10.9,66,10.33,0.0,1016.30,67.4
2019-06-10 04:40,53.749495,-98.07581,11.6,13.0,279,989.51,10.6,71,10.34,0.0,1016.37,67.4
2019-06-10 04:50,53.7494933333333,-98.07581,12.0,14.7,281,989.54,10.6,70,10.33,0.0,1016.40,67.4
2019-06-10 05:00,53.749505,-98.075825,11.4,12.7,274,989.65,10.3,77,10.32,0.0,1016.51,148.3
2019-06-10 05:10,53.7494883333333,-98.0758266666667,10.7,12.4,274,989.73,9.9,80,10.34,0.0,1016.59,148.3
2019-06-10 05:20,53.7494833333333,-98.0758133333333,10.7,12.6,279,989.72,9.9,81,10.35,0.0,1016.56,148.3
2019-06-10 05:30,53.7494733333333,-98.07583,9.8,11.8,283,989.71,9.9,84,10.35,0.0,1016.56,148.3
2019-06-10 05:40,53.7494466666667,-98.0757716666667,10.1,13.2,286,989.64,9.9,85,10.36,0.0,1016.48,148.3
2019-06-10 05:50,53.7493683333333,-98.0757916666667,12.8,14.7,297,989.54,10.3,72,10.35,0.0,1016.38,148.3
2019-06-10 06:00,53.7493866666667,-98.0757883333333,12.2,13.7,299,989.60,10.3,71,10.34,0.0,1016.46,170.9
2019-06-10 06:10,53.7494133333333,-98.0757966666667,10.8,13.1,299,989.65,10.3,73,10.35,0.0,1016.51,170.9
2019-06-10 06:20,53.74938,-98.075785,12.1,14.1,297,989.69,10.1,71,10.36,0.0,1016.56,170.9
2019-06-10 06:30,53.7494,-98.0757816666667,11.7,13.2,299,989.72,10.0,71,10.36,0.0,1016.61,170.9
2019-06-10 06:40,53.7493966666667,-98.0757866666667,10.8,13.5,295,989.82,10.0,76,10.36,0.0,1016.71,170.9
2019-06-10 06:50,53.74938,-98.0757883333333,11.8,13.6,299,989.81,10.0,76,10.36,0.0,1016.71,170.9
2019-06-10 07:00,53.7493483333333,-98.0757733333333,12.6,14.6,302,989.80,10.0,74,10.35,0.0,1016.72,360.0
2019-06-10 07:10,53.749355,-98.0758,13.5,15.2,299,989.79,10.0,73,10.36,0.0,1016.71,360.0
2019-06-10 07:20,53.7493583333333,-98.0757833333333,13.6,16.7,300,989.80,9.9,72,10.37,0.0,1016.73,360.0
2019-06-10 07:30,53.7493666666667,-98.0757866666667,12.9,15.0,302,989.85,9.8,72,10.38,0.0,1016.78,360.0
2019-06-10 07:40,53.7493683333333,-98.075795,13.0,16.8,300,989.86,9.8,74,10.39,0.0,1016.78,360.0
2019-06-10 07:50,53.7493216666667,-98.0757933333333,15.8,17.5,299,989.75,9.7,71,10.39,0.0,1016.67,360.0
2019-06-10 08:00,53.7493433333333,-98.0757833333333,15.5,17.9,299,989.81,9.5,72,10.40,0.0,1016.74,172.8
2019-06-10 08:10,53.7493383333333,-98.0757766666667,15.4,18.3,302,989.92,9.4,73,10.42,0.0,1016.86,172.8
2019-06-10 08:20,53.7493366666667,-98.0757866666667,14.9,18.0,301,990.05,9.3,74,10.42,0.0,1017.01,172.8
2019-06-10 08:30,53.74934,-98.0757983333333,15.6,17.9,303,990.09,9.2,74,10.42,0.0,1017.06,172.8
2019-06-10 08:40,53.74937,-98.0758,14.4,16.7,302,990.20,9.2,75,10.42,0.0,1017.17,172.8
2019-06-10 08:50,53.7493833333333,-98.07578,15.0,18.0,300,990.24,9.3,74,10.42,0.0,1017.20,172.8
2019-06-10 09:00,53.7493483333333,-98.075765,15.4,17.9,300,990.23,9.3,73,10.41,0.0,1017.20,171.4
2019-06-10 09:10,53.7493183333333,-98.0757466666667,15.2,17.2,299,990.26,9.2,73,10.40,0.0,1017.23,171.4
2019-06-10 09:20,53.7492883333333,-98.07576,16.0,18.7,300,990.27,9.2,75,10.38,0.0,1017.25,171.4
2019-06-10 09:30,53.74932,-98.075755,16.3,18.5,302,990.25,9.1,75,10.38,0.0,1017.23,171.4
2019-06-10 09:40,53.749275,-98.0757466666667,15.4,18.8,302,990.29,9.2,77,10.39,0.0,1017.28,171.4
2019-06-10 09:50,53.7492583333333,-98.075765,16.5,19.6,305,990.20,9.1,72,10.39,0.0,1017.20,171.4
2019-06-10 10:00,53.749295,-98.0757566666667,12.8,17.6,318,990.38,9.0,69,10.38,0.0,1017.39,160.2
2019-06-10 10:10,53.7492633333333,-98.0757566666667,12.4,15.9,319,990.39,8.8,68,10.39,0.0,1017.41,160.2
2019-06-10 10:20,53.749255,-98.075765,13.6,17.7,314,990.43,8.8,72,10.41,0.0,1017.47,160.2
2019-06-10 10:30,53.7492983333333,-98.0757883333333,11.0,14.5,322,990.55,8.7,69,10.42,0.0,1017.59,160.2
2019-06-10 10:40,53.7493016666667,-98.0757833333333,9.3,11.4,318,990.62,8.6,71,10.45,0.0,1017.66,160.2
2019-06-10 10:50,53.749275,-98.0757716666667,10.0,12.3,320,990.69,8.8,74,10.48,0.0,1017.73,160.2
2019-06-10 11:00,53.749285,-98.07581,9.9,12.8,323,990.73,8.7,71,10.50,0.0,1017.78,212.3
2019-06-10 11:10,53.74928,-98.075795,9.4,11.5,321,990.76,8.5,71,10.54,0.0,1017.82,212.3
2019-06-10 11:20,53.7418233333333,-98.08258,10.4,14.5,305,990.77,8.7,72,10.58,3.0,1017.82,212.3
2019-06-10 11:30,53.7214533333333,-98.1102233333333,16.1,21.2,280,990.60,9.0,72,9.86,9.4,1017.63,212.3
2019-06-10 11:40,53.707405,-98.15578,15.9,19.3,285,990.75,8.6,74,9.17,10.9,1017.81,212.3
2019-06-10 11:50,53.6927816666667,-98.1990833333333,14.1,17.0,288,990.94,8.5,76,8.54,10.6,1018.01,212.3
2019-06-10 12:00,53.69223,-98.202275,8.7,11.0,329,991.21,8.4,77,8.25,0.7,1018.30,232.7
2019-06-10 12:10,53.6922116666667,-98.202195,8.5,9.9,344,991.19,8.3,76,8.20,0.0,1018.29,232.7
2019-06-10 12:20,53.6922416666667,-98.2021733333333,8.3,10.0,325,991.24,8.2,76,8.16,0.0,1018.35,232.7
2019-06-10 12:30,53.69227,-98.202095,8.8,11.9,312,991.26,8.1,75,8.13,0.0,1018.39,232.7
2019-06-10 12:40,53.6922916666667,-98.2035916666667,10.2,14.1,310,991.28,8.1,74,8.11,0.3,1018.39,232.7
2019-06-10 12:50,53.687415,-98.2522866666667,17.5,20.1,291,991.03,8.3,74,8.01,10.5,1018.13,232.7
2019-06-10 13:00,53.68208,-98.3032383333333,17.3,19.0,291,991.11,8.3,75,8.01,11.0,1018.22,243.6
2019-06-10 13:10,53.6766216666667,-98.3540166666667,17.0,19.6,284,991.13,8.4,74,8.11,11.0,1018.22,243.6
2019-06-10 13:20,53.6705883333333,-98.4047116666667,15.4,16.7,279,991.24,8.1,76,7.60,11.0,1018.34,243.6
2019-06-10 13:30,53.6678466666667,-98.4330066666667,11.0,18.9,282,991.38,8.5,80,7.30,6.1,1018.48,243.6
2019-06-10 13:40,53.6659783333333,-98.4450066666667,9.5,10.9,291,991.43,8.6,80,7.19,2.6,1018.53,243.6
2019-06-10 13:50,53.6645133333333,-98.4575433333333,8.7,10.9,277,991.37,8.6,81,7.14,2.7,1018.48,243.6
2019-06-10 14:00,53.6624983333333,-98.4727533333333,9.6,12.9,279,991.34,8.7,77,7.10,3.3,1018.45,249.9
2019-06-10 14:10,53.662385,-98.48347,7.7,12.7,277,991.39,8.3,79,7.08,2.3,1018.52,249.9
2019-06-10 14:20,53.6625233333333,-98.4833333333333,4.2,4.8,260,991.44,8.2,81,7.11,0.1,1018.59,249.9
2019-06-10 14:30,53.6625516666667,-98.4833016666667,4.7,5.3,267,991.40,8.3,81,7.12,0.0,1018.53,249.9
2019-06-10 14:40,53.6754116666667,-98.486595,6.1,12.1,305,991.24,8.2,82,7.14,4.7,1018.37,249.9
2019-06-10 14:50,53.70603,-98.48823,10.5,11.8,335,991.07,8.0,83,7.29,11.0,1018.20,249.9
2019-06-10 15:00,53.7366916666667,-98.4896233333333,9.3,10.3,334,991.05,8.3,82,7.56,11.0,1018.16,284.8
2019-06-10 15:10,53.7674433333333,-98.4912483333333,7.7,9.7,317,991.02,8.9,76,7.92,11.1,1018.11,284.8
2019-06-10 15:20,53.797165,-98.49363,6.4,8.0,317,990.91,8.9,78,8.41,10.7,1017.98,284.8
2019-06-10 15:30,53.8052733333333,-98.4944416666667,6.8,9.7,221,990.87,9.0,80,8.84,2.9,1017.93,284.8
2019-06-10 15:40,53.812535,-98.4967516666667,9.0,10.8,216,990.77,8.9,83,8.84,2.7,1017.84,284.8
2019-06-10 15:50,53.8198066666667,-98.4992533333333,9.9,11.5,212,990.65,8.9,81,9.14,2.7,1017.71,284.8
2019-06-10 16:00,53.8329516666667,-98.5001816666667,8.4,13.3,219,990.57,9.2,77,9.62,4.7,1017.63,322.4
2019-06-10 16:10,53.8332216666667,-98.4998133333333,12.4,13.8,210,990.25,9.9,73,10.28,0.1,1017.27,322.4
2019-06-10 16:20,53.8332366666667,-98.4998433333333,12.0,13.2,206,990.18,9.9,73,10.41,0.0,1017.20,322.4
2019-06-10 16:30,53.83326,-98.4999166666667,12.5,14.1,205,990.08,9.6,79,10.48,0.0,1017.11,322.4
2019-06-10 16:40,53.8332583333333,-98.49994,13.0,14.5,196,989.94,9.6,78,10.53,0.0,1016.98,322.4
2019-06-10 16:50,53.8332866666667,-98.5000083333333,12.8,14.7,192,989.89,9.6,76,10.56,0.0,1016.91,322.4
2019-06-10 17:00,53.8333033333333,-98.5000533333333,12.7,14.2,187,989.83,9.7,75,10.58,0.0,1016.82,354.6
2019-06-10 17:10,53.8332916666667,-98.5000483333333,12.5,14.5,187,989.75,9.7,75,10.59,0.0,1016.73,354.6
2019-06-10 17:20,53.8333033333333,-98.5000666666667,12.4,14.5,190,989.71,9.8,73,10.61,0.0,1016.69,354.6
2019-06-10 17:30,53.833195,-98.5001416666667,15.6,19.3,196,989.55,9.6,76,10.61,0.0,1016.53,354.6
2019-06-10 17:40,53.83,-98.5043966666667,15.4,30.0,202,989.59,9.3,75,10.59,1.5,1016.59,354.6
2019-06-10 17:50,53.8099433333333,-98.54154,22.7,33.7,217,988.81,10.2,60,10.32,10.7,1015.74,354.6
2019-06-10 18:00,53.7899933333333,-98.5789716666667,21.8,26.6,209,988.78,10.1,62,9.67,10.7,1015.68,315.3
2019-06-10 18:10,53.7702966666667,-98.61745,17.6,21.4,201,989.03,9.7,70,9.33,10.8,1015.95,315.3
2019-06-10 18:20,53.7500633333333,-98.6550483333333,19.5,24.2,211,988.84,10.0,68,9.51,10.8,1015.75,315.3
2019-06-10 18:30,53.7295833333333,-98.6922666666667,19.5,22.2,201,988.82,9.6,77,9.62,10.8,1015.75,315.3
2019-06-10 18:40,53.7088116666667,-98.7293466666667,17.3,20.3,196,988.94,8.8,83,9.16,10.9,1015.91,315.3
2019-06-10 18:50,53.6878183333333,-98.76605,16.6,18.0,195,988.89,8.3,86,8.30,10.9,1015.88,315.3
2019-06-10 19:00,53.6671883333333,-98.80296,18.3,20.8,198,988.55,8.6,85,8.27,10.8,1015.52,227.3
2019-06-10 19:10,53.6465133333333,-98.8403616666667,15.9,18.9,195,988.73,9.3,78,9.55,10.9,1015.67,227.3
2019-06-10 19:20,53.6281816666667,-98.8740733333333,15.2,19.6,189,988.57,9.6,74,9.90,9.8,1015.50,227.3
2019-06-10 19:30,53.6231866666667,-98.8837316666667,11.7,13.4,159,988.94,8.9,81,9.64,2.7,1015.92,227.3
2019-06-10 19:40,53.618735,-98.891815,10.9,12.0,157,988.88,8.7,84,9.49,2.4,1015.83,227.3
2019-06-10 19:50,53.6142316666667,-98.8998666666667,10.5,12.9,157,988.82,8.7,84,9.31,2.4,1015.77,227.3
2019-06-10 20:00,53.6076683333333,-98.9117116666667,8.6,15.7,175,989.00,9.1,75,9.16,3.5,1015.96,227.4
2019-06-10 20:10,53.5993716666667,-98.924365,6.1,18.5,228,988.88,10.8,62,8.77,4.0,1015.74,227.4
2019-06-10 20:20,53.5992283333333,-98.9241016666667,14.4,22.1,287,988.66,12.2,55,8.73,0.1,1015.46,227.4
2019-06-10 20:30,53.5992566666667,-98.9241533333333,9.4,12.5,291,988.77,12.7,53,8.70,0.0,1015.59,227.4
2019-06-10 20:40,53.5886316666667,-98.9185433333333,3.1,11.0,270,988.42,12.2,58,8.70,4.0,1015.28,227.4
2019-06-10 20:50,53.56177,-98.8936016666667,6.8,10.2,158,988.13,12.7,51,8.23,11.0,1014.94,227.4
2019-06-10 21:00,53.5346266666667,-98.87058,11.8,18.7,158,987.87,12.7,52,7.85,10.9,1014.65,214.2
2019-06-10 21:10,53.507,-98.8486283333333,12.0,14.1,145,987.86,13.0,48,7.92,11.0,1014.61,214.2
2019-06-10 21:20,53.479275,-98.8267416666667,10.1,12.3,123,987.79,12.2,54,7.32,11.0,1014.61,214.2
2019-06-10 21:30,53.4517566666667,-98.804195,12.3,13.8,148,987.58,12.8,49,6.88,11.0,1014.36,214.2
2019-06-10 21:40,53.4395216666667,-98.793115,6.7,11.7,137,987.70,13.1,49,6.73,5.0,1014.48,214.2
2019-06-10 21:50,53.4331233333333,-98.788285,11.6,18.8,128,987.43,11.8,58,6.82,2.5,1014.23,214.2
2019-06-10 22:00,53.4273066666667,-98.7833216666667,15.1,17.4,123,987.36,8.5,82,6.87,2.3,1014.25,177.2
2019-06-10 22:10,53.42086,-98.7799083333333,14.4,16.0,121,987.26,7.7,87,6.77,2.4,1014.12,177.2
2019-06-10 22:20,53.41718,-98.7761566666667,14.3,24.9,116,987.19,7.9,86,6.66,1.6,1014.01,177.2
2019-06-10 22:30,53.412625,-98.7671583333333,14.9,25.0,124,987.04,7.7,87,6.61,2.5,1013.88,177.2
2019-06-10 22:40,53.412545,-98.7672316666667,12.1,13.9,114,987.02,7.6,89,6.60,0.0,1013.85,177.2
2019-06-10 22:50,53.4126433333333,-98.76716,12.1,14.2,112,986.83,7.4,91,6.55,0.0,1013.66,177.2
2019-06-10 23:00,53.4017933333333,-98.78617,9.9,15.9,135,986.91,7.3,92,6.56,5.6,1013.74,160.0
2019-06-10 23:10,53.3850216666667,-98.8296383333333,9.8,16.0,175,987.11,7.1,95,6.58,11.1,1013.99,160.0
2019-06-10 23:20,53.3674583333333,-98.8723483333333,4.0,14.3,247,986.85,8.8,77,6.66,11.1,1013.61,160.0
2019-06-10 23:30,53.3488466666667,-98.913645,5.2,10.6,282,986.99,9.6,73,6.74,11.1,1013.71,160.0
2019-06-10 23:40,53.3311366666667,-98.95508,20.9,34.3,286,987.48,10.5,71,6.74,11.0,1014.22,160.0
